Regional Weather Roundup
Issued by NWS

Home | Current Version | Previous Version | Text Only | Print | Product List | Glossary Off
Versions: 1 2 3 4 5 6 7 8 9 10 11 12 13 14 15 16 17 18 19 20 21 22 23 24 25 26 27 28 29 30 31 32 33 34 35 36 37 38 39 40 41 42 43 44 45 46 47 48 49 50

359
ASUS44 KJAN 301203
RWRMS

MISSISSIPPI HOURLY WEATHER ROUNDUP
NATIONAL WEATHER SERVICE JACKSON MS
700 AM CDT MON MAR 30 2015

NOTE: "FAIR: INDICATES FEW OR NO CLOUDS BELOW 12,000 FEET WITH NO
SIGNIFICANT WEATHER AND/OR OBSTRUCTIONS TO VISIBILITY.

MSZ001>002-007>008-010>013-018>021-025>028-034>036-301300-
NORTHWEST MISSISSIPPI

CITY           SKY/WX    TMP DP  RH WIND       PRES   REMARKS
CLARKSDALE     MOCLDY    55  54  94 N5        30.21R
CLEVELAND      FAIR      55  55  97 CALM      30.19R
GREENWOOD      CLEAR     62  55  77 N6        30.17R
6HR MIN TEMP:  62; 6HR MAX TEMP:  68; 6HR PCP: TRACE;

GREENVILLE     PTCLDY    59  54  83 N5        30.18R
6HR MIN TEMP:  59; 6HR MAX TEMP:  68; 6HR PCP: TRACE;

OLIVE BRANCH   CLEAR     48  48 100 CALM      30.18R
OXFORD         FAIR      52  50  93 CALM      30.18R FOG
TUNICA         SUNNY     50  46  87 N9        30.20R
$$

MSZ003>006-009-014>017-022>024-029>033-037>039-301300-
NORTHEAST MISSISSIPPI

CITY           SKY/WX    TMP DP  RH WIND       PRES   REMARKS
COLUMBUS AFB   CLOUDY    60  58  95 NW6       30.15R
6HR MIN TEMP:  60; 6HR MAX TEMP:  63; 6HR PCP:  0.04;

CORINTH        FAIR      52  50  93 NW5       30.16R
GOLDN TRIANGLE CLOUDY    61  57  88 NW14      30.15R
STARKVILLE     CLOUDY    61  59  94 W3        30.16R
TUPELO         PTCLDY    57  53  86 N7        30.16R
6HR MIN TEMP:  57; 6HR MAX TEMP:  64; 6HR PCP:  0.37;

$$

MSZ040-058-301300-
CENTRAL MISSISSIPPI

CITY           SKY/WX    TMP DP  RH WIND       PRES   REMARKS
JACKSON INTL   MOCLDY    64  60  87 W6        30.20R
6HR MIN TEMP:  61; 6HR MAX TEMP:  65;

JACKSON HAWKNS MOCLDY    63  60  90 W8        30.20R
6HR MIN TEMP:  62; 6HR MAX TEMP:  65;

MERIDIAN KEY   CLOUDY    62  59  90 NW7       30.21R
6HR MIN TEMP:  61; 6HR MAX TEMP:  63;

MERIDIAN NAS   TSTM      62  62 100 W9G16     30.14  FOG
RAYMOND        PTSUNNY   63  59  88 SW5       30.20R
VICKSBURG      CLOUDY    63  59  87 SW5       30.20R
6HR MIN TEMP:  62; 6HR MAX TEMP:  66;

$$

MSZ059>079-301300-
SOUTH MISSISSIPPI

CITY           SKY/WX    TMP DP  RH WIND       PRES   REMARKS
BROOKHAVEN     CLOUDY    63  63 100 SW7       30.22R
HATTIESBURG    FOG       59  58  96 S5        30.21S VSB 1/4
6HR MIN TEMP:  54; 6HR MAX TEMP:  61;

MCCOMB         PTCLDY    55  54  96 CALM      30.21R
6HR MIN TEMP:  54; 6HR MAX TEMP:  63;

NATCHEZ        MOCLDY    59  55  88 CALM      30.21R VSB 3/4
6HR MIN TEMP:  57; 6HR MAX TEMP:  66;

PINE BELT      CLEAR     59  57  94 SW6       30.20S
6HR MIN TEMP:  55; 6HR MAX TEMP:  61;

$$

MSZ080>082-301300-
COASTAL MISSISSIPPI

CITY           SKY/WX    TMP DP  RH WIND       PRES   REMARKS
BILOXI         PTCLDY    64  64 100 W2        30.22R
6HR MIN TEMP:  63; 6HR MAX TEMP:  67;

PASCAGOULA     PTCLDY    63  62  97 CALM      30.23R
6HR MIN TEMP:  63; 6HR MAX TEMP:  67;

GULFPORT       PTCLDY    61  59  93 CALM      30.22R
6HR MIN TEMP:  61; 6HR MAX TEMP:  67;

$$



USA.gov is the U.S. government's official web portal to all federal, state and local government web resources and services.